This is the latest recevied weather packets stored in our database for station/object KF7U. If no packets are shown the sender has not sent any weather packets the latest 10 day(s).
| Time | Temp. | Humidity | Pressure | Rain* | Wind** | Luminosity | Snow |
|---|---|---|---|---|---|---|---|
| 1788210188 | 30.56° C | 50% | 1016.6 hPa | 0 mm | - | - | - |
| 1788209887 | 30.56° C | 48% | 1016.9 hPa | 0 mm | - | - | - |
| 1788209588 | 30° C | 50% | 1016.9 hPa | 0 mm | - | - | - |
| 1788209287 | 29.44° C | 54% | 1016.9 hPa | 0 mm | - | - | - |
| 1788208988 | 28.33° C | 59% | 1016.9 hPa | 0 mm | - | - | - |
| 1788208688 | 28.33° C | 60% | 1016.9 hPa | 0 mm | - | - | - |
| 1788208388 | 27.78° C | 62% | 1016.9 hPa | 0 mm | - | - | - |
| 1788208089 | 27.22° C | 65% | 1017.3 hPa | 0 mm | - | - | - |
| 1788207788 | 26.67° C | 69% | 1017.3 hPa | 0 mm | - | - | - |
| 1788207487 | 25.56° C | 73% | 1017.3 hPa | 0 mm | - | - | - |
| 1788207187 | 25° C | 76% | 1017.3 hPa | 0 mm | - | - | - |
| 1788206888 | 24.44° C | 80% | 1017.3 hPa | 0 mm | - | - | - |
| 1788206588 | 24.44° C | 82% | 1017.3 hPa | 0 mm | - | - | - |
| 1788206287 | 23.89° C | 83% | 1017.6 hPa | 0 mm | - | - | - |
| 1788205987 | 23.89° C | 85% | 1016.9 hPa | 0 mm | - | - | - |
| 1788205687 | 23.89° C | 85% | 1016.9 hPa | 0 mm | - | - | - |
| 1788205388 | 23.89° C | 85% | 1017.6 hPa | 0 mm | - | - | - |
| 1788205088 | 23.89° C | 86% | 1017.3 hPa | 0 mm | - | - | - |
| 1788204787 | 23.33° C | 86% | 1017.3 hPa | 0 mm | - | - | - |
| 1788204488 | 23.33° C | 86% | 1017.3 hPa | 0 mm | - | - | - |
| 1788204187 | 23.33° C | 85% | 1017.6 hPa | 0 mm | - | - | - |
| 1788203888 | 23.89° C | 85% | 1017.6 hPa | 0 mm | - | - | - |
| 1788203587 | 23.89° C | 85% | 1017.6 hPa | 0 mm | - | - | - |
| 1788203287 | 23.89° C | 84% | 1017.6 hPa | 0 mm | - | - | - |
| 1788202987 | 23.89° C | 83% | 1017.6 hPa | 0 mm | - | - | - |
* Rain latest hour (hover to see other rain measurements)
** Current wind speed in m/s (hover to see current wind gust speed)